Regional Weather Roundup
Issued by NWS

Home | Current Version | Previous Version | Text Only | Print | Product List | Glossary Off
Versions: 1 2 3 4 5 6 7 8 9 10 11 12 13 14 15 16 17 18 19 20 21 22 23 24 25 26 27 28 29 30 31 32 33 34 35 36 37 38 39 40 41 42 43 44 45 46 47 48 49 50

000
ASUS45 KTFX 191910
RWRMT
MONTANA REGIONAL WEATHER ROUNDUP
NATIONAL WEATHER SERVICE GREAT FALLS MT
1200 PM MST SUN NOV 19 2017

NOTE: "FAIR" INDICATES FEW OR NO CLOUDS BELOW 12000 FEET WITH NO
SIGNIFICANT WEATHER AND/OR OBSTRUCTIONS TO VISIBILITY.

MTZ001>007-043-192000-
WEST OF THE DIVIDE

CITY           SKY/WX    TMP DP  RH WIND       PRES   REMARKS
KALISPELL      FAIR      35  28  75 SW7       29.95F WCI  29
MISSOULA       FAIR      35  25  66 VRB3      30.01F
BUTTE          FAIR      28  14  55 CALM      29.97F
MULLAN PASS    FAIR      27  20  75 VRB6G17   29.91F WCI  20
ANACONDA         N/A     39  10  30 S16       29.95F WCI  30
DEER LODGE       N/A     28  19  69 CALM      29.98F
EUREKA           N/A     43  21  42 MISG      29.94F
HAMILTON         N/A     46  10  23 S6        30.00F
LIBBY            N/A     30  27  86 CALM      29.95F
PLAINS           N/A     35  28  76 CALM      30.00F
RONAN            N/A     40  27  60 S7        30.01F
$$

MTZ008-052>055-192000-
SOUTHWEST MONTANA

CITY           SKY/WX    TMP DP  RH WIND       PRES   REMARKS
BOZEMAN        FAIR      30  21  69 E5        29.97F
DILLON         FAIR      41  15  35 SW13      29.99F
W YELLOWSTONE  FAIR      27  12  54 SW15      30.14F WCI  15
ENNIS          CLOUDY    37  10  32 S33G45    30.04F WCI  24
TWIN BRIDGES     N/A     41  16  36 S1        29.99F
$$

MTZ009-010-012-014-046-048-049-054-192000-
EAST SLOPES AND CENTRAL MONTANA

CITY           SKY/WX    TMP DP  RH WIND       PRES   REMARKS
CUT BANK       FAIR      43  16  33 SW39G48   29.68F
GREAT FALLS    FAIR      45   9  23 SW29G47   29.80R
MALMSTROM AFB  FAIR      46   9  22 SW29G43   29.80F
HELENA         FAIR      36  20  52 SW3       29.95F
BOWMANS CRNR   FAIR      42  11  28 SW36G41   29.77F
CHOTEAU          N/A     48  10  21 SW9G18    29.76F
FAIRFIELD      FAIR      46  13  26 S25G36    29.76F
POWER          FAIR      43  11  27 SW29      29.78F
RAYNESFORD     PTSUNNY   49   4  15 W31G46    29.80F
ULM            PTSUNNY   47   8  20 SW29G39   29.83F
$$

MTZ011-013-016-021-045-047-050-051-192000-
NORTH CENTRAL MONTANA

CITY           SKY/WX    TMP DP  RH WIND       PRES   REMARKS
HAVRE          FAIR      47  20  34 SW26G35   29.69F
LEWISTOWN      FAIR      47  13  25 SW25G32   29.77F
N BAR RANCH    FAIR      48   9  20 SW7       29.77F
CHINOOK          N/A     48  12  23 SW28G37   29.66F
DENTON         PTSUNNY   49   9  19 SW26      29.71F
GEYSER         PTSUNNY   47   6  18 W26G33    29.77F
GRASS RANGE    FAIR      51   6  16 W21       29.72F
STANFORD       PTSUNNY   47   4  16 W23G29    29.77F
WINIFRED       FAIR      47  15  27 W15       29.74F
$$

MTZ017>020-022>027-061-062-192000-
NORTHEAST MONTANA

CITY           SKY/WX    TMP DP  RH WIND       PRES   REMARKS
GLASGOW        FAIR      40  28  62 SE8       29.74F
GLENDIVE       FAIR      40  22  48 SW10      29.81F
JORDAN           N/A     46  22  38 SW12      29.75F
SIDNEY         FAIR      37  23  56 S9        29.81F WCI  30
WOLF POINT     FAIR      39  26  59 SW5       29.78F
MALTA          SUNNY     36  28  75 NE5       29.72F
PLENTYWOOD       N/A     37  25  60 CALM      29.75F
POPLAR           N/A     37  25  60 CALM      29.78F
SCOBEY           N/A     38  19  46 S2        29.74F
$$

MTZ028>42-056>058-192000-
SOUTHCENTRAL AND SOUTHEAST MONTANA

CITY           SKY/WX    TMP DP  RH WIND       PRES   REMARKS
BAKER          FAIR      43  22  43 SW7       29.83F
BILLINGS       PTSUNNY   44  16  32 W16       29.86F
LIVINGSTON     FAIR      42  14  32 SW24G49   29.88F
MILES CITY     FAIR      40  27  59 SE5       29.82F
BIG TIMBER     SUNNY     46  12  25 W25G32    29.90F
EKALAKA          N/A     42  15  33 SW5       29.84
FORSYTH          N/A     48  19  32 SW8       29.81F
HARLOWTON      PTSUNNY   39  19  43 W28G37    29.84F WCI  28
LAUREL           N/A     45  16  31 SW20G29   29.86F
$$

REGIONAL REPORTS...DAKOTAS

CITY           SKY/WX    TMP DP  RH WIND       PRES   REMARKS
WILLISTON      FAIR      37  24  59 S9        29.80F WCI  30
MINOT          FAIR      40  25  55 W7        29.77F
DICKINSON      FAIR      43  21  41 W14       29.81F
BEACH          FAIR      39  19  45 SW9       29.84F
CROSBY         FAIR      34  25  69 SW12      29.77F WCI  25
TIOGA          FAIR      34  27  75 W12       29.78F WCI  25
BISMARCK       FAIR      48  26  42 W9        29.84F
GRAND FORKS    FAIR      30  23  75 SW8       29.81F WCI  22
FARGO          FAIR      42  24  49 S12       29.82F
BUFFALO SD       N/A     48  19  31 W15       29.79F
RAPID CITY     FAIR      51  23  33 SE7       29.90F
$$

REGIONAL REPORTS...WYOMING/IDAHO/WASHINGTON

CITY           SKY/WX    TMP DP  RH WIND       PRES   REMARKS
GILLETTE       FAIR      51  14  22 SW20      29.87F
SHERIDAN       FAIR      43  27  53 CALM      29.86F
BUFFALO WY     FAIR      35  21  56 SW3       29.88F
CODY           FAIR      41  11  29 CALM      29.96F
YELLOWSTONE LA   N/A     24  14  65 CALM      30.14F
IDAHO FALLS    FAIR      33  23  66 CALM      30.22F
SALMON         FAIR      36  20  52 CALM      30.11F
BOISE          FAIR      42  24  49 SW8       30.17F
SPOKANE        CLOUDY    40  27  59 S12       29.94F
$$

REGIONAL REPORTS...ALBERTA

CITY           SKY/WX    TMP DP  RH WIND       PRES   REMARKS
EDMONTON       MOSUNNY   23  14  68 E7        29.35F WCI  15
CALGARY        PTSUNNY   41  21  45 CALM      29.46F
LETHBRIDGE     PTSUNNY   41  25  52 W18G26    29.62F
MEDICINE HAT   CLOUDY    41  25  52 SW30G39   29.54F
$$

REGIONAL REPORTS...SASKATCHEWAN

CITY           SKY/WX    TMP DP  RH WIND       PRES   REMARKS
SWIFT CURRENT  SUNNY     36  23  60 SW16      29.58F WCI  26
REGINA         PTSUNNY   19  16  86 SE10      29.69F WCI   8
SASKATOON      PTSUNNY   16   9  73 SE12G20   29.65F WCI   3
$$



USA.gov is the U.S. government's official web portal to all federal, state and local government web resources and services.